{"data":{"norad_id":68022,"epoch":"2026-09-20T02:22:28.229376Z","epoch_age_seconds":94176,"freshness":"FRESH","line1":"1 68022U 26040H   26263.09893784  .00014262  00000+0  44320-3 0  9997","line2":"2 68022  97.2853 210.4004 0001702  96.4374 263.7063 15.33447898 31258","mean_motion":15.33447898,"eccentricity":0.0001702,"inclination_deg":97.2853,"raan_deg":210.4004,"arg_perigee_deg":96.4374,"mean_anomaly_deg":263.7063,"bstar":0.0004432,"rev_number":3125,"period_min":93.906027187368,"perigee_km":464.36975918446,"apogee_km":466.69934498079,"semimajor_km":6843.6715520826,"source":"CELESTRAK","updated_at":"2026-09-20T09:00:43.742919Z"}}